Location: Julian California
(33.0790°N, 116.6010°W)
Time: 10:55:45
(UTC-07:00)

Cosmos 1544 Rocket - Pass Details

Date: 19 May 2017
Orbit: 604 x 632 km, 82.5° (Epoch: 25 September)

Event Time Altitude Azimuth Distance (km) Brightness Sun altitude
Rises 20:51:49 0° 1° (N) 2,862 7.5 -13.5°
Reaches altitude 10° 20:54:07 10° 7° (N) 1,953 6.5 -13.9°
Maximum altitude 20:58:16 46° 81° (E) 816 3.9 -14.6°
Enters shadow 21:00:27 25° 141° (SE) 1,238 4.5 -14.9°
